CSS (WENTIAN)

Last updated on Tue Sep 10 2024 00:02:07 GMT+0000 (Coordinated Universal Time)

1 53239U 22085A 24253.56825476 .00038368 00000+0 40217-3 0 9992 2 53239 41.4687 288.7603 0001331 74.3285 285.7702 15.63639434189008
UTC large
Height (km)
Speed (km/s)
/
Latitude / Longitude
Inclination (degrees)
Orbital Period (minutes)
Azimuth
Elevation
Range (km)
Doppler Factor

Next 0 passes for location: London (51.5072 / 0.1276)

Sorry there are no passes over London.